Regional Weather Roundup
Issued by NWS Northern Indiana

Home | Current Version | Previous Version | Text Only | Print | Product List | Glossary On
Versions: 1 2 3 4 5 6 7 8 9 10 11 12 13 14 15 16 17 18 19 20 21 22 23 24 25 26 27 28 29 30 31 32 33 34 35 36 37 38 39 40 41 42 43 44 45 46 47 48 49 50
000
ASUS43 KIWX 310110
RWRIWX

KIWX WEATHER ROUNDUP
NATIONAL WEATHER SERVICE NORTHERN INDIANA
900 PM EDT MON MAR 30 2015

NOTE: "FAIR" INDICATES FEW OR NO CLOUDS BELOW 12,000 FEET WITH NO
SIGNIFICANT WEATHER AND/OR OBSTRUCTIONS TO VISIBILITY.

* THESE STATIONS ARE NOT UNDER NWS QUALITY CONTROL. THEY ALSO MAY NOT
  REPORT WEATHER SUCH AS PRECIPITATION OR FOG.

INZ001>027-310200-
NORTHERN INDIANA

CITY           SKY/WX    TMP DP  RH WIND       PRES   REMARKS
GARY*          CLOUDY    52  28  40 E8        29.93
VALPARAISO     CLOUDY    51  34  52 NE9       29.95S
MICHIGAN CITY* CLOUDY    46  32  57 E3        29.96F
LAPORTE*       DRIZZLE   52  38  60 NE8       29.96S
KNOX*            N/A     52  12  20 NE5       29.95R
SOUTH BEND     LGT RAIN  49  40  71 NW8       30.00R
ELKHART*       LGT RAIN  48  36  61 NW12      30.00R
GOSHEN         LGT RAIN  50  38  63 W14       29.98R
MONTICELLO*    CLOUDY    53  37  54 SW3       29.95S
LOGANSPORT*    CLOUDY    50  37  62 SW5       29.97R
ROCHESTER*     CLOUDY    55  32  41 CALM      29.97R
WARSAW*        LGT RAIN  52  34  50 NW14      29.97R
ANGOLA*        CLOUDY    52  34  50 W13       29.97R
FORT WAYNE     CLOUDY    51  34  52 W8        29.97R
HUNTINGTON*    CLOUDY    52  29  41 W12G17    29.97R
PERU/GRISSOM   CLOUDY    49  38  65 SW8       29.96S
MARION*        CLOUDY    48  36  61 S6        29.98S

$$
INZ028>050-310200-
CENTRAL INDIANA

CITY           SKY/WX    TMP DP  RH WIND       PRES   REMARKS
LAFAYETTE      CLOUDY    55  33  43 S5        29.96S
KOKOMO*          N/A     52  36  54 SW9       29.97R
MUNCIE*        MOCLDY    53  33  46 SW7       29.99S
INDIANAPOLIS   MOCLDY    50  32  50 S8        29.99F

$$
MIZ043>046-050>051-056>058-064>065-071>073-077>080-310200-
SOUTHWEST LOWER MICHIGAN

CITY           SKY/WX    TMP DP  RH WIND       PRES   REMARKS
BATTLE CREEK   CLOUDY    50  27  40 CALM      29.95R
BENTON HARBOR  LGT RAIN  44  41  89 CALM      29.96F
COLDWATER*     RAIN      49  34  55 W21G28    29.96R
HILLSDALE*     CLOUDY    45  25  45 CALM      29.94R
HOLLAND        LGT RAIN  45  36  70 W13       29.94S
GRAND RAPIDS   CLOUDY    48  28  46 W5        29.93R
KALAMAZOO      LGT RAIN  52  28  39 W16G26    29.94R
STURGIS*       LGT RAIN  48  36  61 W9G20     29.98R
THREE RIVERS*  LGT RAIN  47  38  71 W9G17     29.98R

$$
OHZ001>008-015>018-024>025-310200-
NORTHWEST OHIO

CITY           SKY/WX    TMP DP  RH WIND       PRES   REMARKS
WAUSEON*       CLOUDY    48  27  43 W5        29.94S
DEFIANCE       CLOUDY    51  30  44 W6        29.96R
FINDLAY        CLOUDY    50  29  44 SW3       29.95S
TOLEDO EXPRESS CLOUDY    49  27  42 W5        29.94S
TOLEDO METCALF CLOUDY    49  26  41 NW6       29.95S
LIMA           CLOUDY    50  31  48 SW8       29.97S

$$
AND FOR LAKE MICHIGAN COASTAL AND OPEN LAKE BUOY OBSERVATIONS

STATION/POSITION TEMP    WIND        PRES    VSBY  WAVE
                 AIR SEA DIR/SP/G                  HT/PER
                 (F)     (DEG/KT/KT) (MB)    (MI)  (FT/S)
CALUMET HARBOR    45      60/  9/ 12 1012.1S
MICHIGAN CITY     46      50/ 11/ 12   N/A
BURNS HARBOR      48     100/  8/ 11 1014.6F
SAINT JOSEPH      45      50/  2/  3 1015.2F

$$
&&



USA.gov is the U.S. government's official web portal to all federal, state and local government web resources and services.